TimeEDT,TemperatureF,Dew PointF,Humidity,Sea Level PressureIn,VisibilityMPH,Wind Direction,Wind SpeedMPH,Gust SpeedMPH,PrecipitationIn,Events,Conditions,WindDirDegrees,DateUTC
12:51 AM,51.1,46.0,83,29.47,10.0,ESE,3.5,-,N/A,,Mostly Cloudy,110,2012-10-31 04:51:00
1:51 AM,54.0,46.9,77,29.45,10.0,SSE,3.5,-,N/A,,Overcast,160,2012-10-31 05:51:00
2:51 AM,53.1,48.0,83,29.43,10.0,Calm,Calm,-,0.00,,Overcast,0,2012-10-31 06:51:00
3:32 AM,53.6,48.2,82,29.42,10.0,SSE,4.6,-,0.00,,Overcast,160,2012-10-31 07:32:00
3:51 AM,54.0,48.0,80,29.43,10.0,SSE,5.8,-,0.00,,Overcast,160,2012-10-31 07:51:00
4:41 AM,48.2,44.6,87,29.45,8.0,South,15.0,21.9,0.00,Rain,Light Rain,190,2012-10-31 08:41:00
4:51 AM,48.0,44.1,86,29.46,8.0,South,12.7,-,0.00,Rain,Light Rain,170,2012-10-31 08:51:00
5:42 AM,46.4,42.8,87,29.47,10.0,South,12.7,18.4,0.01,Rain,Light Rain,170,2012-10-31 09:42:00
5:51 AM,45.0,42.1,90,29.48,10.0,SSE,11.5,17.3,0.01,Rain,Light Rain,160,2012-10-31 09:51:00
6:51 AM,44.1,41.0,89,29.48,10.0,SSE,6.9,-,0.01,Rain,Light Rain,150,2012-10-31 10:51:00
7:51 AM,45.0,41.0,86,29.50,10.0,SSE,10.4,-,0.00,,Overcast,160,2012-10-31 11:51:00
8:51 AM,46.0,39.9,79,29.50,10.0,SSE,9.2,-,N/A,,Mostly Cloudy,150,2012-10-31 12:51:00
9:51 AM,46.9,39.0,74,29.51,10.0,South,9.2,-,N/A,,Mostly Cloudy,170,2012-10-31 13:51:00
10:51 AM,46.9,37.0,68,29.50,10.0,South,13.8,23.0,N/A,,Mostly Cloudy,170,2012-10-31 14:51:00
11:51 AM,50.0,37.9,63,29.50,10.0,South,10.4,19.6,N/A,,Mostly Cloudy,170,2012-10-31 15:51:00
12:51 PM,50.0,36.0,59,29.50,10.0,SSE,12.7,18.4,N/A,,Mostly Cloudy,160,2012-10-31 16:51:00
1:51 PM,50.0,36.0,59,29.50,10.0,South,16.1,23.0,N/A,,Mostly Cloudy,180,2012-10-31 17:51:00
2:51 PM,48.9,36.0,61,29.50,10.0,South,16.1,-,N/A,,Mostly Cloudy,170,2012-10-31 18:51:00
3:51 PM,48.0,36.0,63,29.51,10.0,South,11.5,-,N/A,,Mostly Cloudy,170,2012-10-31 19:51:00
4:51 PM,46.9,36.0,66,29.52,10.0,South,10.4,-,N/A,,Mostly Cloudy,180,2012-10-31 20:51:00
5:51 PM,46.0,36.0,68,29.52,10.0,South,11.5,34.5,N/A,,Overcast,190,2012-10-31 21:51:00
6:51 PM,46.0,37.0,71,29.54,10.0,South,9.2,-,N/A,,Overcast,180,2012-10-31 22:51:00
7:51 PM,46.0,37.9,73,29.55,10.0,South,8.1,-,0.00,Rain,Light Rain,170,2012-10-31 23:51:00
8:51 PM,45.0,37.0,74,29.55,10.0,South,9.2,-,0.00,Rain,Light Rain,180,2012-11-01 00:51:00
9:51 PM,45.0,36.0,71,29.55,10.0,South,6.9,-,0.00,Rain,Light Rain,170,2012-11-01 01:51:00
10:51 PM,45.0,36.0,71,29.55,10.0,South,5.8,-,N/A,,Overcast,180,2012-11-01 02:51:00
11:51 PM,45.0,37.0,74,29.55,10.0,South,6.9,-,0.00,,Overcast,180,2012-11-01 03:51:00